Regional Weather Roundup
Issued by NWS

Home | Current Version | Previous Version | Graphics & Text | Print | Product List | Glossary On
Versions: 1 2 3 4 5 6 7 8 9 10 11 12 13 14 15 16 17 18 19 20 21 22 23 24 25 26 27 28 29 30 31 32 33 34 35 36 37 38 39 40 41 42 43 44 45 46 47 48 49 50
000
ASUS45 KBOU 221407
RWRCO

WEATHER ROUNDUP FOR COLORADO
NATIONAL WEATHER SERVICE DENVER/BOULDER CO
800 AM MDT SUN OCT 22 2017

NOTE: "FAIR" INDICATES FEW OR NO CLOUDS BELOW 12000 FEET WITH NO
SIGNIFICANT WEATHER AND/OR OBSTRUCTIONS TO VISIBILITY.

COZ001>005-013-030-031-221500-
...NORTHWEST COLORADO...

CITY           SKY/WX    TMP DP  RH WIND       PRES   REMARKS
CRAIG          FAIR      27  22  81 CALM      30.40R
HAYDEN         MOCLDY    33  23  66 SE8       30.41R WCI  26
MEEKER         FAIR      28  23  81 CALM      30.42R
RABBIT EARS PA CLOUDY    21  19  93 W9G20     30.38R WCI  11
STEAMBOAT SPGS CLOUDY    30  24  78 SW5       30.40R WCI  26
WALDEN         NOT AVBL
$$

COZ006>008-011-221500-
...WEST CENTRAL VALLEYS...

CITY           SKY/WX    TMP DP  RH WIND       PRES   REMARKS
GRAND JUNCTION FAIR      34  17  50 E6        30.42R WCI  29
MONTROSE       FAIR      29  15  56 S5        30.46R WCI  24
EAGLE          FAIR      23  19  85 CALM      30.49R
RIFLE          FAIR      27  23  85 SE3       30.47R
DELTA          FAIR      32  16  52 NE7       30.45R WCI  25
NUCLA          FAIR      28   9  43 SE5       30.47R WCI  23
$$

COZ017>023-064>068-221500-
...SOUTHWEST COLORADO...

CITY           SKY/WX    TMP DP  RH WIND       PRES   REMARKS
DURANGO        FAIR      27  11  51 NE6       30.41R WCI  20
CORTEZ         FAIR      27  11  51 E6        30.41R WCI  20
PAGOSA SPRINGS FAIR      26   8  47 CALM      30.41R
TELLURIDE      FAIR      31  18  58 SE6       30.48R WCI  25
WOLF CREEK PAS FAIR      32  14  47 W7        30.54R WCI  26
$$

COZ009-010-012-014-032>034-037-058>063-221500-
...CENTRAL COLORADO...

CITY           SKY/WX    TMP DP  RH WIND       PRES   REMARKS
ASPEN          FAIR      24  18  77 S8        30.45R WCI  15
BUENA VISTA    FAIR      38  14  37 NW15G26   30.34R
COPPER MTN     CLOUDY    27  19  74 MISG      30.45R
BERTHOUD PASS  HAZE      18   9  68 NW44G55   30.31R VSB 1/4 WCI  -5
COTTONWOOD PAS FAIR      37  18  44 NW6       30.36R
GUNNISON       FAIR      15  12  88 CALM      30.49
KREMMLING      CLOUDY    34  25  69 E6        30.41F WCI  29
LEADVILLE      MOCLDY    19  12  74 NE6       30.42R WCI  11
MONARCH PASS   FAIR      19   9  63 W49G56    30.48R WCI  -3
SALIDA         FAIR      39  11  31 W12       30.41R
SUNLIGHT       FAIR      21  14  73 W7        30.51R WCI  13
WILKERSON PASS FAIR      27  14  59 NW7       30.40R WCI  19
$$

COZ069>075-221500-
...SAN LUIS VALLEY/SANGRE DE CRISTO MOUNTAINS...

CITY           SKY/WX    TMP DP  RH WIND       PRES   REMARKS
ALAMOSA        FAIR      21  11  65 CALM      30.41R
DEL NORTE      FAIR      23   6  47 W8        30.43R WCI  14
LA VETA PASS   FAIR      32  10  40 SW35G47   30.47R WCI  17
SAGUACHE       FAIR      27  12  54 E5        30.43R WCI  21
$$

COZ035-036-038>040-221500-
...NORTHERN COLORADO FRONT RANGE...

CITY           SKY/WX    TMP DP  RH WIND       PRES   REMARKS
DENVER INTL AP MOCLDY    45  18  34 SW9       30.17R
DMNS CITY PARK   N/A     38  18  45 SE7       30.18R
AURORA         MOCLDY    42  18  38 S10       30.19R
FRONT RANGE AP MOCLDY    46  19  34 SW8       30.17R
ERIE MUNI ARPT FAIR      31  24  74 S3        30.22R
BOULDER MUN AP FAIR      36  21  55 CALM      30.16R
CENTENNIAL     FAIR      39  18  42 SE12      30.18R
BROOMFIELD     MOCLDY    41  18  38 NW3       30.17R
FORT COLLINS   FAIR      32  27  81 S6        30.15S WCI  26
LONGMONT       FAIR      32  24  73 W5        30.17S HAZE    WCI  27
$$

COZ041-046-047-076>085-087-088-221500-
...PIKES PEAK/PALMER DIVIDE AND SOUTHERN FOOTHILLS...

CITY           SKY/WX    TMP DP  RH WIND       PRES   REMARKS
COLO. SPRINGS  MOCLDY    32  13  45 NE8       30.25R WCI  25
A. F. ACADEMY  FAIR      28  11  48 N6        30.24R WCI  22
SCHRIEVER AFB  FAIR      35  10  35 NE3       30.25R
CHEYENNE MTN   FAIR      37  10  31 CALM      30.18R
ELLICOTT         N/A    N/A N/A N/A S6        30.23R
FALCON         FAIR      32   8  36 CALM      30.26R
FORT CARSON    FAIR      32  15  49 NW8       30.23R WCI  25
LIMON          FAIR      38  14  37 S9        30.23R
MONUMENT HILL  FAIR      30  12  47 MISG      30.24R
CANON CITY     FAIR      50  18  27 W18G24    30.21R
WALSENBURG     FAIR      50  14  23 W23G31    30.23S
TRINIDAD       FAIR      34  24  67 W8        30.25R WCI  27
$$

COZ042>045-048>051-090-091-221500-
...NORTHEAST COLORADO...

CITY           SKY/WX    TMP DP  RH WIND       PRES   REMARKS
GREELEY ARPT   FAIR      28  22  78 SW3       30.16S
AKRON          FAIR      42  14  32 SW15G23   30.17R
BURLINGTON     FAIR      38  20  48 SW12      30.22R
WRAY           FAIR      34  23  64 W7        30.20R WCI  28
YUMA           NOT AVBL
STERLING       FAIR      30  23  74 CALM      30.16S
HOLYOKE        FAIR      37  27  65 SW7       30.19R
FORT MORGAN    FAIR      32  22  66 CALM      30.17R
$$

COZ086-089-092>099-221500-
...SOUTHEAST COLORADO...

CITY           SKY/WX    TMP DP  RH WIND       PRES   REMARKS
PUEBLO         FAIR      31  19  61 CALM      30.23R
LA JUNTA       FAIR      34  23  64 NW3       30.24R
LAMAR          FAIR      29  20  69 CALM      30.24R
SPRINGFIELD      N/A     34  22  61 SW8       30.27R WCI  27
$$



USA.gov is the U.S. government's official web portal to all federal, state and local government web resources and services.